TimeMST,TemperatureF,Dew PointF,Humidity,Sea Level PressureIn,VisibilityMPH,Wind Direction,Wind SpeedMPH,Gust SpeedMPH,PrecipitationIn,Events,Conditions,WindDirDegrees,DateUTC
12:08 AM,9.0,5.0,84,30.34,1.5,East,15.0,-,0.00,Snow,Light Snow,80,2014-01-23 07:08:00
12:20 AM,8.1,5.0,87,30.34,2.0,East,15.0,-,0.00,Snow,Light Snow,80,2014-01-23 07:20:00
12:32 AM,8.1,5.0,87,30.34,1.5,East,12.7,-,0.00,Snow,Light Snow,80,2014-01-23 07:32:00
12:40 AM,8.1,5.0,87,30.34,1.2,East,13.8,-,0.00,Snow,Light Snow,80,2014-01-23 07:40:00
12:49 AM,8.6,5.0,85,30.34,1.8,East,11.5,-,0.00,Snow,Light Snow,90,2014-01-23 07:49:00
12:53 AM,8.1,5.0,87,30.48,1.2,East,11.5,-,0.00,Snow,Light Snow,100,2014-01-23 07:53:00
1:01 AM,8.1,5.0,87,30.35,1.0,East,12.7,-,0.00,Snow,Light Snow,80,2014-01-23 08:01:00
1:15 AM,7.0,3.9,87,30.35,1.2,East,13.8,-,0.00,Snow,Light Snow,90,2014-01-23 08:15:00
1:18 AM,7.0,3.9,87,30.35,1.5,East,13.8,-,0.00,Snow,Light Snow,90,2014-01-23 08:18:00
1:39 AM,6.1,3.0,87,30.36,2.0,East,13.8,-,0.00,Snow,Light Snow,90,2014-01-23 08:39:00
1:46 AM,6.1,3.0,87,30.36,3.0,East,13.8,-,0.00,Snow,Light Snow,90,2014-01-23 08:46:00
1:53 AM,6.1,3.0,87,30.51,3.0,East,11.5,-,0.00,Snow,Light Snow,90,2014-01-23 08:53:00
2:00 AM,6.1,3.0,87,30.36,2.5,East,13.8,-,0.00,Snow,Light Snow,90,2014-01-23 09:00:00
2:26 AM,6.1,1.9,83,30.39,1.8,East,11.5,-,0.00,Snow,Light Snow,100,2014-01-23 09:26:00
2:36 AM,5.0,1.9,87,30.39,1.2,East,13.8,-,0.00,Snow,Light Snow,90,2014-01-23 09:36:00
2:40 AM,5.0,1.0,84,30.39,2.0,East,11.5,-,0.00,Snow,Light Snow,90,2014-01-23 09:40:00
2:53 AM,5.0,1.0,84,30.55,2.0,East,10.4,-,0.00,Snow,Light Snow,90,2014-01-23 09:53:00
3:02 AM,5.0,1.0,84,30.39,1.2,East,10.4,-,0.00,Snow,Light Snow,100,2014-01-23 10:02:00
3:09 AM,3.9,1.0,88,30.39,1.2,East,11.5,-,0.00,Snow,Light Snow,100,2014-01-23 10:09:00
3:19 AM,3.9,1.0,88,30.39,2.0,East,12.7,-,0.00,Snow,Light Snow,90,2014-01-23 10:19:00
3:27 AM,3.9,-0.0,84,30.39,2.5,East,12.7,-,0.00,Snow,Light Snow,90,2014-01-23 10:27:00
3:53 AM,3.9,-0.0,84,30.59,1.5,East,8.1,-,0.00,Snow,Light Snow,80,2014-01-23 10:53:00
3:57 AM,3.9,1.0,88,30.41,2.0,East,10.4,-,0.00,Snow,Light Snow,80,2014-01-23 10:57:00
4:07 AM,3.9,1.0,88,30.42,3.0,ENE,6.9,-,0.00,Snow,Light Snow,70,2014-01-23 11:07:00
4:09 AM,3.9,1.0,88,30.42,2.5,ENE,8.1,-,0.00,Snow,Light Snow,70,2014-01-23 11:09:00
4:19 AM,3.9,-0.0,84,30.43,1.5,East,10.4,-,0.00,Snow,Light Snow,80,2014-01-23 11:19:00
4:28 AM,3.9,-0.0,84,30.43,2.0,East,8.1,-,0.00,Snow,Light Snow,90,2014-01-23 11:28:00
4:41 AM,3.9,-0.0,84,30.44,4.0,East,6.9,-,0.00,Snow,Light Snow,90,2014-01-23 11:41:00
4:53 AM,3.9,-0.0,84,30.64,1.8,ENE,5.8,-,0.00,Snow,Light Snow,70,2014-01-23 11:53:00
5:17 AM,3.0,-0.0,87,30.45,1.2,East,3.5,-,0.01,Snow,Light Snow,90,2014-01-23 12:17:00
5:37 AM,3.0,-0.0,87,30.45,1.8,SE,3.5,-,0.01,Snow,Light Snow,130,2014-01-23 12:37:00
5:48 AM,3.2,-0.4,85,30.46,2.5,Calm,Calm,-,0.01,Snow,Light Snow,0,2014-01-23 12:48:00
5:53 AM,3.0,-0.9,84,30.67,5.0,ESE,3.5,-,0.01,Snow,Light Snow,110,2014-01-23 12:53:00
6:53 AM,3.9,-0.0,84,30.70,9.0,SE,4.6,-,0.00,,Overcast,140,2014-01-23 13:53:00
7:53 AM,3.9,-0.0,84,30.74,5.0,SSE,4.6,-,0.00,Snow,Light Snow,160,2014-01-23 14:53:00
8:53 AM,5.0,1.0,84,30.76,4.0,SW,6.9,-,0.00,Snow,Light Snow,220,2014-01-23 15:53:00
9:42 AM,7.0,1.9,80,30.54,9.0,WSW,5.8,-,0.00,,Overcast,250,2014-01-23 16:42:00
9:53 AM,8.1,1.9,76,30.79,10.0,WSW,5.8,-,0.00,,Overcast,250,2014-01-23 16:53:00
10:01 AM,8.1,1.9,76,30.54,10.0,West,8.1,-,N/A,,Overcast,260,2014-01-23 17:01:00
10:53 AM,10.0,3.0,73,30.79,10.0,SW,6.9,-,N/A,,Scattered Clouds,230,2014-01-23 17:53:00
11:53 AM,12.0,5.0,73,30.75,10.0,WSW,12.7,-,N/A,,Clear,240,2014-01-23 18:53:00
12:53 PM,14.0,6.1,71,30.72,10.0,WSW,13.8,-,N/A,,Clear,240,2014-01-23 19:53:00
1:53 PM,16.0,7.0,68,30.70,10.0,WSW,12.7,-,N/A,,Clear,240,2014-01-23 20:53:00
2:53 PM,16.0,7.0,68,30.68,10.0,WSW,13.8,-,N/A,,Clear,240,2014-01-23 21:53:00
3:53 PM,15.1,7.0,70,30.67,10.0,SW,12.7,-,N/A,,Clear,230,2014-01-23 22:53:00
4:53 PM,10.9,3.9,73,30.66,10.0,WSW,9.2,-,N/A,,Clear,240,2014-01-23 23:53:00
5:53 PM,9.0,3.0,77,30.66,10.0,WSW,12.7,-,N/A,,Clear,240,2014-01-24 00:53:00
6:53 PM,8.1,3.0,80,30.64,10.0,SW,15.0,-,N/A,,Clear,230,2014-01-24 01:53:00
7:53 PM,8.1,3.0,80,30.63,10.0,WSW,15.0,-,N/A,,Clear,250,2014-01-24 02:53:00
8:53 PM,8.1,3.0,80,30.61,10.0,WSW,16.1,-,N/A,,Clear,250,2014-01-24 03:53:00
9:53 PM,10.9,5.0,77,30.55,10.0,SW,17.3,-,N/A,,Clear,230,2014-01-24 04:53:00
10:53 PM,12.9,5.0,71,30.51,10.0,WSW,16.1,-,N/A,,Clear,240,2014-01-24 05:53:00
11:53 PM,14.0,6.1,71,30.47,10.0,SW,18.4,-,N/A,,Clear,230,2014-01-24 06:53:00